{"data":{"norad_id":61211,"epoch":"2026-05-25T00:33:14.052384Z","epoch_age_seconds":73370,"freshness":"FRESH","line1":"1 61211U 24171M   26145.02307931  .00000088  00000+0  55753-5 0  9994","line2":"2 61211  53.1588 160.2628 0000580  83.5890 276.5194 15.69708180 96389","mean_motion":15.6970818,"eccentricity":5.8e-5,"inclination_deg":53.1588,"raan_deg":160.2628,"arg_perigee_deg":83.589,"mean_anomaly_deg":276.5194,"bstar":5.5753e-6,"rev_number":9638,"period_min":91.736796580878,"perigee_km":359.34116216856,"apogee_km":360.12275496775,"semimajor_km":6737.8689585682,"source":"CELESTRAK","updated_at":"2026-05-25T13:38:19.360962Z"}}